Regional Weather Roundup
Issued by NWS

Home | Current Version | Previous Version | Graphics & Text | Print | Product List | Glossary Off
Versions: 1 2 3 4 5 6 7 8 9 10 11 12 13 14 15 16 17 18 19 20 21 22 23 24 25 26 27 28 29 30 31 32 33 34 35 36 37 38 39 40 41 42 43 44 45 46 47 48 49 50

000
ASUS43 KDTX 220510
RWRMI
MICHIGAN HOURLY REGIONAL WEATHER ROUNDUP
NATIONAL WEATHER SERVICE DETROIT/PONTIAC MI
1200 AM EST THU FEB 22 2018

NOTE: "FAIR" INDICATES FEW OR NO CLOUDS BELOW 12,000 FEET WITH NO
SIGNIFICANT WEATHER AND/OR OBSTRUCTION TO VISIBILITY.

MIZ047>049-052>055-059>063-066>070-074>076-081>083-220600-
SOUTHEAST LOWER MICHIGAN

CITY           SKY/WX    TMP DP  RH WIND       PRES   REMARKS
ADRIAN         CLOUDY    33  30  88 SE9       30.61F WCI  25
ALMA           FAIR      30  24  81 N3        30.66S
ANN ARBOR      CLOUDY    32  28  85 NE8       30.61F WCI  25
BAD AXE        FAIR      26  23  89 CALM      30.68R
CARO           FAIR      28  25  89 E3        30.66S
DETROIT CITY   FAIR      30  24  78 NE8       30.65S WCI  22
DETROIT        CLOUDY    32  27  81 NE8       30.63F WCI  25
FLINT          FAIR      30  26  85 E6        30.64R WCI  24
GROSSE ILE     FAIR      31  28  86 NE9       30.63F WCI  23
HILLSDALE      FAIR      32  28  86 NE6       30.58S WCI  26
HOWELL         FAIR      31  28  87 NE5       30.62S WCI  27

CITY           SKY/WX    TMP DP  RH WIND       PRES   REMARKS
JACKSON        FAIR      33  28  81 N6        30.61S WCI  28
LAMBERTVILLE   FAIR      32  29  89 E3        30.61F
LANSING        FAIR      31  26  82 NE6       30.64S WCI  25
LAPEER         CLOUDY    29  26  88 E3        30.66R
MASON          FAIR      33  27  79 N3        30.63R
MONROE         FAIR      32  28  84 NE6       30.62S WCI  26
MT. CLEMENS    FAIR      29  29  99 NE6       30.65S WCI  23
PONTIAC        CLOUDY    30  27  88 NE5       30.62S WCI  25
PORT HOPE        N/A     29  21  72 NE8       30.67R WCI  21
PORT HURON     MOCLDY    28  23  80 N6        30.67S WCI  22
TRI CITIES     FAIR      30  24  78 N7        30.66S WCI  23
MIDLAND        FAIR      29  25  85 CALM      30.66S
TROY           CLOUDY    31  26  83 NE7       30.67S WCI  24
SAGINAW HB     FAIR      30  27  86 NE5       30.66S WCI  25
$$
MIZ043>046-050>051-056>058-064>065-071>073-077>080-220600-
SOUTHWEST LOWER MICHIGAN

CITY           SKY/WX    TMP DP  RH WIND       PRES   REMARKS
BATTLE CREEK   FAIR      31  28  89 N6        30.61S WCI  25
BENTON HARBOR  FAIR      30  23  75 NE5       30.63S WCI  25
BIG RAPIDS     FAIR      24  17  74 CALM      30.64S
COLDWATER      FAIR      33  32  96 NE5       30.60S WCI  28
FREMONT        FAIR      24  15  68 NE3       30.65S
HOLLAND        FAIR      29  22  75 NE5       30.65R WCI  24
GRAND RAPIDS   CLOUDY    29  22  75 NE6       30.64R WCI  23
IONIA          FAIR      31  25  80 NE6       30.63R WCI  25
KALAMAZOO      FAIR      32  27  81 N5        30.62S WCI  27
LUDINGTON      FAIR      22  19  89 CALM      30.67S
MARSHALL       CLOUDY    32  30  92 CALM      30.61S
MOUNT PLEASANT FAIR      29  23  75 N3        30.65S
MUSKEGON       FAIR      26  17  68 NE7       30.66S WCI  18
SOUTH HAVEN    FAIR      29  24  81 NE6       30.63S WCI  23
$$
MIZ016>042-220600-
NORTHERN LOWER MICHIGAN

CITY           SKY/WX    TMP DP  RH WIND       PRES   REMARKS
ALPENA         FAIR      21  17  84 NW3       30.69R
BEAVER ISLAND  FAIR      15  13  92 CALM      30.68S
BELLAIRE       FAIR      19  19 100 CALM      30.69S
CADILLAC       FAIR      20  17  88 NE3       30.62R
CHARLEVOIX     FAIR      19  18  94 CALM      30.70F
FRANKFORT      FAIR      20  18  90 CALM      30.67S
GAYLORD        FAIR      19  17  92 CALM      30.63R
GRAYLING       FAIR      20  18  91 CALM      30.64R
HARBOR SPRINGS FAIR      16  14  92 NE3       30.67F
HOUGHTON LAKE  FAIR      22  17  81 CALM      30.65R
MANISTEE       FAIR      20  16  84 E3        30.67S
OSCODA         CLOUDY    25  22  87 N3        30.68R
PELLSTON       FAIR      14  11  87 CALM      30.69R
ROGERS CITY    FAIR      20  15  82 W3        30.70S
TRAVERSE CITY  FAIR      22  18  85 S3        30.67S
$$
MIZ007>008-015-220600-
EASTERN UPPER MICHIGAN

CITY           SKY/WX    TMP DP  RH WIND       PRES   REMARKS
KINROSS        FAIR      11   8  88 CALM      30.67S
MACKINAC ISLAN FAIR      15  13  92 CALM      30.68S
NEWBERRY       FAIR       8   8  97 S3        30.64F
S. S. MARIE    FAIR      13   9  84 CALM      30.67S
MUNISING         N/A      6   4  91 S5        30.66R WCI  -3
$$
MIZ004>006-011>014-085-220600-
CENTRAL UPPER MICHIGAN

CITY           SKY/WX    TMP DP  RH WIND       PRES   REMARKS
MANISTIQUE     FAIR      10   9  94 CALM      30.65S
ESCANABA       FAIR      12   8  84 W6        30.67R WCI   3
MENOMINEE      FAIR      18  11  74 NW6       30.67F WCI  10
SAWYER-GWINN   FAIR       3   0  85 CALM      30.62R
$$
MIZ001>003-009>011-084-220600-
WESTERN UPPER MICHIGAN

CITY           SKY/WX    TMP DP  RH WIND       PRES   REMARKS
IRON MOUNTAIN  FAIR       5   1  83 CALM      30.62R
HOUGHTON       FAIR       8   2  76 W3        30.59S
COPPER HARBOR    N/A     14   6  70 CALM      30.62R
IRONWOOD       FAIR       4  -2  76 CALM      30.61R
$$

ABBREVIATIONS USED IN REMARKS
   TC - TEMPERATURE IN CELSIUS
  WCI - WIND CHILL INDEX
   HX - HEAT INDEX
  VSB - VISIBILITY





USA.gov is the U.S. government's official web portal to all federal, state and local government web resources and services.